Location: Krakow
(50.0830°N, 19.9170°E)
Time: 18:57:42
(UTC+01:00)

SR - Pass Details

Date: 14 February 2023
Orbit: 582 x 867 km, 66.7° (Epoch: 20 March)

Event Time Altitude Azimuth Distance (km) Brightness Sun altitude
Rises 14:56:22 0° 291° (WNW) 3,013 ? 15.4°
Reaches altitude 10° 15:00:33 10° 327° (NNW) 2,030 ? 15.0°
Maximum altitude 15:01:54 11° 344° (NNW) 1,934 ? 14.8°
Drops below altitude 10° 15:03:15 10° 2° (N) 1,992 ? 14.6°
Sets 15:07:13 0° 38° (NE) 2,851 ? 14.2°
